{"data":{"norad_id":69561,"intl_designator":"2026-135R","name":"STARLINK-37952","alt_names":[],"object_type":"PAYLOAD","status":"ACTIVE","operator":null,"country":"US","launch_date":"2026-06-15","launch_site_code":"AFWTR","launch_vehicle":null,"mission":null,"orbit_class":"UNKNOWN","rcs_meters":null,"size_class":null,"mass_kg":null,"dimensions":null,"purposes":["comms"],"wikipedia_slug":null,"has_3d_model":false,"image_url":null,"decayed_at":null,"tle_current":{"epoch":"2026-09-20T01:18:11.964096Z","epoch_age_seconds":60182,"freshness":"FRESH","line1":"1 69561U 26135R   26263.05430514  .00011701  00000+0  36413-3 0  9994","line2":"2 69561  97.2848 290.7746 0001439  96.6043 263.5363 15.33451699 14938","mean_motion":15.33451699,"eccentricity":0.0001439,"inclination_deg":97.2848,"raan_deg":290.7746,"arg_perigee_deg":96.6043,"mean_anomaly_deg":263.5363,"bstar":0.00036413,"rev_number":1493,"period_min":93.905794420461,"perigee_km":464.53844033087,"apogee_km":466.50804574881,"semimajor_km":6843.6602430398,"source":"CELESTRAK","updated_at":"2026-09-20T09:00:44.244657Z"}}}